RYR7NW EIDW-EPKK

Flight info

Callsign RYR7NW
Flight time N/A
Altitude 37000
Route ENDEQ3J ENDEQ Q36 ALAVA Z195 MALUD UL975 WAL M16 DOLAS L603 LAMSO DCT POVEL DCT MAG DCT BOLBO DCT LASIS T714 MOFKE
Aircraft B38M/M-SDE1FGHILORVWXY/HB1

Departure

Time 2026-05-07 19:19
Airport Dublin Airport (EIDW)

Arrival

Time N/A
Airport Kraków John Paul II International Airport (EPKK)
Time Latitude Longitude Altitude Speed Heading
2026-05-07 18:46 53.43007 -6.24942 227 ft 0 kts
2026-05-07 19:05 53.43004 -6.24942 227 ft 3 kts
2026-05-07 19:05 53.42977 -6.24946 227 ft 4 kts
2026-05-07 19:06 53.42956 -6.24948 228 ft 2 kts 338°
2026-05-07 19:06 53.42947 -6.24917 230 ft 2 kts 275°
2026-05-07 19:11 53.42948 -6.24933 227 ft 2 kts 275°
2026-05-07 19:11 53.42950 -6.24973 227 ft 5 kts 275°
2026-05-07 19:11 53.42953 -6.25039 227 ft 7 kts 275°
2026-05-07 19:12 53.42958 -6.25127 227 ft 9 kts 276°
2026-05-07 19:12 53.42966 -6.25238 227 ft 10 kts 287°
2026-05-07 19:12 53.43027 -6.25303 227 ft 11 kts 336°
2026-05-07 19:12 53.43106 -6.25361 227 ft 13 kts 336°
2026-05-07 19:13 53.43152 -6.25395 229 ft 0 kts 336°
2026-05-07 19:13 53.43155 -6.25397 228 ft 1 kts 336°
2026-05-07 19:14 53.43171 -6.25410 228 ft 3 kts 326°
2026-05-07 19:14 53.43173 -6.25431 227 ft 2 kts 259°
2026-05-07 19:14 53.43170 -6.25496 227 ft 9 kts 280°
2026-05-07 19:14 53.43219 -6.25551 227 ft 10 kts 336°
2026-05-07 19:15 53.43288 -6.25601 227 ft 12 kts 336°
2026-05-07 19:15 53.43370 -6.25656 227 ft 13 kts 352°
2026-05-07 19:15 53.43408 -6.25547 227 ft 13 kts 96°
2026-05-07 19:15 53.43398 -6.25387 227 ft 15 kts 95°
2026-05-07 19:16 53.43389 -6.25208 227 ft 16 kts 95°
2026-05-07 19:16 53.43380 -6.25008 227 ft 18 kts 94°
2026-05-07 19:16 53.43368 -6.24790 227 ft 20 kts 95°
2026-05-07 19:16 53.43369 -6.24587 227 ft 14 kts 55°
2026-05-07 19:17 53.43447 -6.24551 228 ft 12 kts
2026-05-07 19:17 53.43519 -6.24555 229 ft 9 kts 315°
2026-05-07 19:17 53.43527 -6.24592 229 ft 0 kts 276°
2026-05-07 19:18 53.43529 -6.24620 230 ft 17 kts 275°
2026-05-07 19:18 53.43564 -6.25271 227 ft 93 kts 275°
2026-05-07 19:18 53.43641 -6.26702 228 ft 153 kts 275°
2026-05-07 19:18 53.43759 -6.28605 714 ft 166 kts 277°
2026-05-07 19:19 53.44114 -6.30476 1472 ft 176 kts 297°
2026-05-07 19:19 53.44946 -6.32139 2038 ft 200 kts 315°
2026-05-07 19:19 53.46108 -6.33688 2628 ft 220 kts 316°
2026-05-07 19:19 53.47379 -6.35172 3508 ft 235 kts 335°
2026-05-07 19:20 53.49065 -6.35615 4224 ft 256 kts
2026-05-07 19:20 53.50760 -6.34611 4942 ft 276 kts 37°
2026-05-07 19:20 53.51884 -6.32044 5955 ft 276 kts 73°
2026-05-07 19:20 53.52004 -6.28839 6875 ft 279 kts 104°
2026-05-07 19:21 53.51532 -6.25664 7799 ft 283 kts 103°
2026-05-07 19:21 53.51236 -6.22368 8780 ft 287 kts 99°
2026-05-07 19:21 53.50958 -6.19036 9735 ft 290 kts 100°
2026-05-07 19:21 53.50666 -6.15635 10458 ft 301 kts 100°
2026-05-07 19:22 53.50365 -6.12084 10874 ft 321 kts 100°
2026-05-07 19:22 53.50045 -6.08270 11289 ft 339 kts 100°
2026-05-07 19:22 53.49703 -6.04281 11867 ft 350 kts 100°
2026-05-07 19:22 53.49346 -6.00227 12649 ft 354 kts 101°
2026-05-07 19:23 53.48972 -5.96127 13365 ft 361 kts 101°
2026-05-07 19:23 53.48586 -5.91962 14064 ft 366 kts 101°
2026-05-07 19:23 53.48192 -5.87732 14726 ft 369 kts 101°
2026-05-07 19:23 53.47793 -5.83491 15403 ft 373 kts 101°
2026-05-07 19:24 53.47382 -5.79146 16063 ft 377 kts 101°
2026-05-07 19:24 53.46968 -5.74788 16711 ft 380 kts 102°
2026-05-07 19:24 53.46547 -5.70380 17343 ft 384 kts 102°
2026-05-07 19:24 53.46120 -5.65931 17974 ft 388 kts 102°
2026-05-07 19:25 53.45688 -5.61440 18528 ft 391 kts 102°
2026-05-07 19:25 53.45251 -5.56925 19068 ft 394 kts 102°
2026-05-07 19:25 53.44808 -5.52372 19599 ft 397 kts 102°
2026-05-07 19:25 53.44543 -5.47706 19902 ft 409 kts 92°
2026-05-07 19:26 53.44488 -5.42892 20214 ft 416 kts 94°
2026-05-07 19:26 53.44364 -5.38046 20753 ft 417 kts 95°
2026-05-07 19:26 53.44226 -5.33153 21220 ft 421 kts 95°
2026-05-07 19:26 53.44081 -5.28287 21726 ft 423 kts 95°
2026-05-07 19:27 53.43930 -5.23339 22208 ft 426 kts 95°
2026-05-07 19:27 53.43777 -5.18359 22689 ft 429 kts 95°
2026-05-07 19:27 53.43625 -5.13339 23177 ft 432 kts 95°
2026-05-07 19:27 53.43471 -5.08312 23640 ft 435 kts 95°
2026-05-07 19:28 53.43313 -5.03241 24049 ft 438 kts 95°
2026-05-07 19:28 53.43153 -4.98135 24489 ft 440 kts 95°
2026-05-07 19:28 53.42988 -4.92985 24918 ft 442 kts 95°
2026-05-07 19:28 53.42821 -4.87824 25337 ft 445 kts 95°
2026-05-07 19:29 53.42651 -4.82632 25760 ft 447 kts 95°
2026-05-07 19:29 53.42477 -4.77410 26174 ft 449 kts 95°
2026-05-07 19:29 53.42303 -4.72236 26578 ft 451 kts 96°
2026-05-07 19:29 53.42123 -4.66955 26981 ft 454 kts 96°
2026-05-07 19:30 53.41940 -4.61668 27372 ft 456 kts 96°
2026-05-07 19:30 53.41754 -4.56343 27755 ft 458 kts 96°
2026-05-07 19:30 53.41564 -4.50987 28136 ft 461 kts 96°
2026-05-07 19:30 53.41372 -4.45623 28499 ft 463 kts 96°
2026-05-07 19:31 53.41196 -4.40221 28863 ft 466 kts 93°
2026-05-07 19:31 53.41160 -4.34764 29219 ft 468 kts 92°
2026-05-07 19:31 53.41115 -4.29280 29578 ft 471 kts 93°
2026-05-07 19:31 53.41055 -4.23782 29920 ft 473 kts 93°
2026-05-07 19:32 53.40986 -4.18265 30223 ft 475 kts 93°
2026-05-07 19:32 53.40914 -4.12792 30509 ft 477 kts 93°
2026-05-07 19:32 53.40841 -4.07279 30878 ft 476 kts 93°
2026-05-07 19:32 53.40764 -4.01715 31273 ft 476 kts 93°
2026-05-07 19:33 53.40685 -3.96210 31644 ft 475 kts 93°
2026-05-07 19:33 53.40603 -3.90650 31962 ft 476 kts 93°
2026-05-07 19:33 53.40432 -3.79568 32011 ft 474 kts 93°
2026-05-07 19:34 53.40252 -3.68609 32373 ft 474 kts 94°
2026-05-07 19:34 53.40159 -3.63096 32745 ft 473 kts 94°
2026-05-07 19:34 53.40062 -3.57581 33118 ft 473 kts 94°